カタログに戻る

FENGYUN 1C DEB

運用中PO
NORAD 31948·DEBRIS·🇨🇳 China

打ち上げ May 10, 1999 から Taiyuan Satellite Launch Center

Loading…

次のパス (今後24時間)

TLE

最新Source: Space-Track

元期: Sep 12, 2026, 04:30 UTC

1 31948U 99025CMZ 26255.18802437  .00001961  00000-0  77827-3 0  9994
2 31948  99.3797 341.3901 0020967 316.7854  73.0977 14.29960376989343

AllMySatでFENGYUN 1C DEBをリアルタイム追跡

Download on the App Store